This is the latest recevied weather packets stored in our database for station/object DC4AT. If no packets are shown the sender has not sent any weather packets the latest 10 day(s).
| Time | Temp. | Humidity | Pressure | Rain* | Wind** | Luminosity | Snow |
|---|---|---|---|---|---|---|---|
| 1777759422 | 15° C | 62% | 1014.8 hPa | 0 mm | - | 0 W/m² | - |
| 1777758822 | 15° C | 63% | 1014.9 hPa | 0 mm | - | 0 W/m² | - |
| 1777758222 | 15.56° C | 63% | 1015 hPa | 0 mm | - | 0 W/m² | - |
| 1777757622 | 16.11° C | 61% | 1015.1 hPa | 0 mm | - | 0 W/m² | - |
| 1777757022 | 16.67° C | 59% | 1015.1 hPa | 0 mm | - | 0 W/m² | - |
| 1777756422 | 16.67° C | 57% | 1015.1 hPa | 0 mm | - | 0 W/m² | - |
| 1777755822 | 16.67° C | 58% | 1015.1 hPa | 0 mm | - | 0 W/m² | - |
| 1777755222 | 16.67° C | 58% | 1015.2 hPa | 0 mm | - | 0 W/m² | - |
| 1777754622 | 16.67° C | 60% | 1015.3 hPa | 0 mm | - | 0 W/m² | - |
| 1777754022 | 16.67° C | 62% | 1015.2 hPa | 0 mm | - | 0 W/m² | - |
| 1777753422 | 17.22° C | 61% | 1015.2 hPa | 0 mm | - | 0 W/m² | - |
| 1777752822 | 17.78° C | 58% | 1015.3 hPa | 0 mm | - | 0 W/m² | - |
| 1777752222 | 18.33° C | 56% | 1015.3 hPa | 0 mm | - | 0 W/m² | - |
| 1777751622 | 18.33° C | 54% | 1015.3 hPa | 0 mm | - | 0 W/m² | - |
| 1777751022 | 18.33° C | 52% | 1015.3 hPa | 0 mm | - | 0 W/m² | - |
| 1777750422 | 17.78° C | 53% | 1015.3 hPa | 0 mm | - | 0 W/m² | - |
| 1777749822 | 18.33° C | 52% | 1015.2 hPa | 0 mm | - | 0 W/m² | - |
| 1777749222 | 18.33° C | 50% | 1015.2 hPa | 0 mm | - | 0 W/m² | - |
| 1777748622 | 18.89° C | 50% | 1015.2 hPa | 0 mm | - | 0 W/m² | - |
| 1777748022 | 18.89° C | 50% | 1015.2 hPa | 0 mm | - | 0 W/m² | - |
| 1777747422 | 18.89° C | 50% | 1015.1 hPa | 0 mm | - | 0 W/m² | - |
| 1777746822 | 19.44° C | 50% | 1015.2 hPa | 0 mm | - | 9 W/m² | - |
| 1777746222 | 19.44° C | 51% | 1015.1 hPa | 0 mm | - | 14 W/m² | - |
| 1777745622 | 20° C | 51% | 1015.1 hPa | 0 mm | - | 28 W/m² | - |
| 1777745022 | 20.56° C | 51% | 1015.1 hPa | 0 mm | - | 53 W/m² | - |
* Rain latest hour (hover to see other rain measurements)
** Current wind speed in m/s (hover to see current wind gust speed)